TAP1528 DGAA-LPPT

Flight info

Callsign TAP1528
Flight time N/A
Altitude 35000
Route ACC UB726 KILMO DCT TATAT DCT IPUTA DCT ABALA DCT MIGNI DCT EREBO/N0461F360 UA604 MNA UM999 ALM UN726 BAMBA DCT ORTOP DCT VATZI
Aircraft A21N/M-SDE2E3FGHIRWXY/LB1

Departure

Time 2026-04-30 21:28
Airport Kotoka International Airport (DGAA)

Arrival

Time N/A
Airport Lisbon Humberto Delgado Airport (LPPT)
Time Latitude Longitude Altitude Speed Heading
2026-04-30 21:16 5.60675 -0.17014 236 ft 0 kts 292°
2026-04-30 21:21 5.60669 -0.17000 236 ft 2 kts 292°
2026-04-30 21:22 5.60663 -0.16986 236 ft 2 kts 292°
2026-04-30 21:22 5.60642 -0.16946 234 ft 2 kts 311°
2026-04-30 21:23 5.60631 -0.16935 234 ft 2 kts 321°
2026-04-30 21:23 5.60618 -0.16927 233 ft 2 kts 330°
2026-04-30 21:23 5.60590 -0.16916 231 ft 2 kts 349°
2026-04-30 21:24 5.60575 -0.16914 231 ft 2 kts 359°
2026-04-30 21:24 5.60560 -0.16915 230 ft 2 kts
2026-04-30 21:24 5.60548 -0.16917 230 ft 0 kts 15°
2026-04-30 21:24 5.60549 -0.16917 230 ft 0 kts 15°
2026-04-30 21:25 5.60644 -0.16880 233 ft 13 kts 23°
2026-04-30 21:25 5.60749 -0.16836 234 ft 19 kts 22°
2026-04-30 21:25 5.60894 -0.16777 235 ft 25 kts 22°
2026-04-30 21:26 5.61271 -0.16622 229 ft 29 kts 22°
2026-04-30 21:26 5.61463 -0.16543 222 ft 30 kts 21°
2026-04-30 21:27 5.61512 -0.16334 208 ft 27 kts 176°
2026-04-30 21:27 5.61108 -0.16478 222 ft 94 kts 201°
2026-04-30 21:27 5.60311 -0.16805 210 ft 153 kts 202°
2026-04-30 21:28 5.57940 -0.17775 884 ft 192 kts 200°
2026-04-30 21:28 5.56702 -0.18236 1621 ft 190 kts 198°
2026-04-30 21:28 5.54221 -0.17972 2455 ft 201 kts 128°
2026-04-30 21:29 5.53750 -0.16645 2739 ft 211 kts 86°
2026-04-30 21:29 5.57377 -0.14429 3712 ft 260 kts 353°
2026-04-30 21:30 5.60987 -0.15104 5107 ft 268 kts 353°
2026-04-30 21:31 5.66467 -0.14657 7231 ft 268 kts 20°
2026-04-30 21:31 5.70088 -0.13564 8553 ft 274 kts 21°
2026-04-30 21:32 5.73776 -0.12448 9831 ft 280 kts 22°
2026-04-30 21:32 5.75671 -0.11872 10368 ft 287 kts 22°
2026-04-30 21:32 5.77631 -0.11276 10658 ft 303 kts 21°
2026-04-30 21:32 5.79707 -0.10646 10923 ft 318 kts 21°
2026-04-30 21:33 5.81893 -0.09987 11211 ft 334 kts 21°
2026-04-30 21:33 5.86553 -0.08587 11736 ft 362 kts 20°
2026-04-30 21:33 5.89010 -0.07850 12036 ft 374 kts 20°
2026-04-30 21:34 5.91513 -0.07102 12533 ft 378 kts 20°
2026-04-30 21:34 5.96620 -0.05573 13565 ft 385 kts 20°
2026-04-30 21:34 5.99217 -0.04794 14049 ft 389 kts 20°
2026-04-30 21:35 6.01820 -0.04014 14534 ft 392 kts 20°
2026-04-30 21:35 6.04436 -0.03228 14982 ft 396 kts 20°
2026-04-30 21:35 6.07096 -0.02429 15436 ft 399 kts 20°
2026-04-30 21:35 6.09770 -0.01625 15915 ft 400 kts 20°
2026-04-30 21:36 6.12451 -0.00819 16361 ft 403 kts 20°
2026-04-30 21:36 6.15160 -0.00006 16799 ft 405 kts 20°
2026-04-30 21:37 6.23351 0.02455 18057 ft 412 kts 20°
2026-04-30 21:37 6.26117 0.03287 18450 ft 415 kts 20°
2026-04-30 21:37 6.28871 0.04114 18850 ft 417 kts 20°
2026-04-30 21:37 6.31695 0.04963 19258 ft 419 kts 20°
2026-04-30 21:38 6.34474 0.05799 19630 ft 421 kts 20°
2026-04-30 21:38 6.37321 0.06655 20020 ft 423 kts 20°
2026-04-30 21:38 6.40132 0.07500 20390 ft 425 kts 20°
2026-04-30 21:38 6.42993 0.08361 20731 ft 428 kts 20°
2026-04-30 21:39 6.45848 0.09222 21086 ft 430 kts 20°
2026-04-30 21:39 6.48713 0.10085 21434 ft 432 kts 20°
2026-04-30 21:39 6.51618 0.10959 21797 ft 433 kts 20°
2026-04-30 21:39 6.54493 0.11826 22117 ft 435 kts 20°
2026-04-30 21:40 6.57424 0.12709 22440 ft 437 kts 20°
2026-04-30 21:40 6.60345 0.13587 22749 ft 440 kts 20°
2026-04-30 21:40 6.63305 0.14477 23075 ft 442 kts 20°
2026-04-30 21:40 6.66255 0.15363 23397 ft 443 kts 20°
2026-04-30 21:41 6.69244 0.16262 23695 ft 446 kts 20°
2026-04-30 21:41 6.72191 0.17147 23964 ft 448 kts 20°
2026-04-30 21:41 6.75217 0.18056 24262 ft 450 kts 20°
2026-04-30 21:41 6.78246 0.18967 24549 ft 452 kts 20°
2026-04-30 21:42 6.81257 0.19873 24825 ft 454 kts 20°
2026-04-30 21:42 6.84274 0.20780 25097 ft 456 kts 20°
2026-04-30 21:42 6.87354 0.21708 25361 ft 458 kts 20°
2026-04-30 21:42 6.90411 0.22628 25621 ft 459 kts 20°
2026-04-30 21:43 6.93466 0.23553 25889 ft 460 kts 20°
2026-04-30 21:43 6.95514 0.24187 26158 ft 458 kts 19°
2026-04-30 21:43 6.99584 0.25424 26714 ft 455 kts 19°
2026-04-30 21:43 7.02610 0.26318 26978 ft 456 kts 19°
2026-04-30 21:44 7.05682 0.27226 27235 ft 457 kts 19°
2026-04-30 21:44 7.08710 0.28127 27534 ft 457 kts 19°
2026-04-30 21:44 7.11784 0.29046 27882 ft 456 kts 19°
2026-04-30 21:44 7.14815 0.29957 28235 ft 454 kts 19°
2026-04-30 21:45 7.17835 0.30867 28568 ft 453 kts 19°
2026-04-30 21:45 7.20888 0.31786 28891 ft 452 kts 19°
2026-04-30 21:45 7.23898 0.32694 29206 ft 452 kts 19°
2026-04-30 21:45 7.26899 0.33600 29516 ft 451 kts 19°
2026-04-30 21:46 7.29935 0.34517 29812 ft 451 kts 19°
2026-04-30 21:46 7.32923 0.35418 30111 ft 450 kts 19°
2026-04-30 21:46 7.35949 0.36331 30410 ft 450 kts 19°
2026-04-30 21:46 7.38929 0.37229 30696 ft 449 kts 18°
2026-04-30 21:47 7.41945 0.38139 30989 ft 449 kts 19°
2026-04-30 21:47 7.44926 0.39039 31267 ft 449 kts 19°
2026-04-30 21:47 7.47945 0.39951 31544 ft 448 kts 18°
2026-04-30 21:47 7.50908 0.40846 31812 ft 448 kts 18°
2026-04-30 21:48 7.53930 0.41759 32083 ft 448 kts 18°
2026-04-30 21:48 7.56883 0.42651 32364 ft 447 kts 18°
2026-04-30 21:48 7.59882 0.43556 32636 ft 446 kts 18°
2026-04-30 21:48 7.62867 0.44458 32913 ft 445 kts 18°
2026-04-30 21:49 7.65829 0.45352 33179 ft 445 kts 18°
2026-04-30 21:49 7.68818 0.46255 33408 ft 445 kts 19°
2026-04-30 21:49 7.71768 0.47146 33602 ft 446 kts 19°
2026-04-30 21:49 7.74757 0.48050 33775 ft 447 kts 19°
2026-04-30 21:50 7.77747 0.48955 33944 ft 448 kts 19°
2026-04-30 21:50 7.80722 0.49855 34109 ft 449 kts 19°
2026-04-30 21:50 7.83730 0.50766 34271 ft 450 kts 19°
2026-04-30 21:50 7.86721 0.51672 34433 ft 450 kts 19°
2026-04-30 21:51 7.89759 0.52592 34604 ft 451 kts 19°
2026-04-30 21:51 7.92742 0.53497 34775 ft 451 kts 19°
2026-04-30 21:51 7.95751 0.54408 34934 ft 451 kts 19°
2026-04-30 21:51 7.98791 0.55328 34971 ft 452 kts 19°
2026-04-30 21:52 8.04811 0.57128 34979 ft 452 kts 18°
2026-04-30 21:52 8.10870 0.58898 34980 ft 452 kts 18°
2026-04-30 21:53 8.16922 0.60671 34983 ft 453 kts 18°
2026-04-30 21:53 8.22996 0.62454 34984 ft 453 kts 18°
2026-04-30 21:54 8.29048 0.64251 35009 ft 453 kts 19°
2026-04-30 21:54 8.35117 0.66080 35004 ft 453 kts 18°
2026-04-30 21:55 8.41200 0.67828 34989 ft 453 kts 18°
2026-04-30 21:55 8.47266 0.69592 34986 ft 453 kts 18°
2026-04-30 21:56 8.53335 0.71374 34992 ft 453 kts 18°
2026-04-30 21:56 8.59395 0.73159 34999 ft 453 kts 18°
2026-04-30 21:57 8.65453 0.74947 35012 ft 454 kts 18°
2026-04-30 21:57 8.71539 0.76743 35018 ft 454 kts 18°
2026-04-30 21:58 8.77621 0.78538 35017 ft 454 kts 18°
2026-04-30 21:58 8.83681 0.80347 35005 ft 454 kts 18°
2026-04-30 21:59 8.89752 0.82168 34991 ft 454 kts 18°
2026-04-30 22:00 8.98846 0.84899 34984 ft 455 kts 18°
2026-04-30 22:00 9.07967 0.87641 34992 ft 455 kts 18°
2026-04-30 22:01 9.14071 0.89476 34993 ft 455 kts 18°
2026-04-30 22:01 9.20143 0.91306 34996 ft 455 kts 18°
2026-04-30 22:02 9.26203 0.93133 35001 ft 455 kts 18°
2026-04-30 22:02 9.32295 0.94971 34992 ft 455 kts 18°
2026-04-30 22:03 9.38364 0.96836 34982 ft 455 kts 20°
2026-04-30 22:03 9.44237 0.99261 34969 ft 454 kts 27°
2026-04-30 22:04 9.49719 1.02401 34964 ft 452 kts 35°
2026-04-30 22:05 9.57181 1.08202 34966 ft 451 kts 41°
2026-04-30 22:05 9.62017 1.12227 34971 ft 451 kts 40°
2026-04-30 22:06 9.66862 1.16252 34979 ft 450 kts 40°
2026-04-30 22:06 9.74130 1.22285 34983 ft 451 kts 40°
2026-04-30 22:07 9.79008 1.26334 34989 ft 451 kts 40°
2026-04-30 22:07 9.83833 1.30338 34987 ft 451 kts 40°
2026-04-30 22:08 9.88692 1.34374 34982 ft 451 kts 40°
2026-04-30 22:08 9.93534 1.38398 34981 ft 451 kts 40°
2026-04-30 22:09 9.98388 1.42433 34974 ft 451 kts 40°
2026-04-30 22:09 10.03247 1.46474 34977 ft 451 kts 40°
2026-04-30 22:10 10.08097 1.50507 34988 ft 451 kts 40°
2026-04-30 22:10 10.12947 1.54542 34994 ft 451 kts 40°
2026-04-30 22:11 10.20233 1.60610 34998 ft 451 kts 40°
2026-04-30 22:12 10.25076 1.64647 34991 ft 450 kts 40°
2026-04-30 22:12 10.29904 1.68671 34984 ft 450 kts 40°
2026-04-30 22:13 10.34752 1.72712 34976 ft 450 kts 40°
2026-04-30 22:13 10.39601 1.76757 34972 ft 450 kts 40°
2026-04-30 22:14 10.44434 1.80789 34972 ft 450 kts 40°
2026-04-30 22:14 10.49307 1.84857 34973 ft 450 kts 40°
2026-04-30 22:15 10.54138 1.88892 34964 ft 451 kts 40°
2026-04-30 22:15 10.58965 1.92928 34959 ft 451 kts 40°
2026-04-30 22:16 10.63816 1.96983 34954 ft 451 kts 40°
2026-04-30 22:17 10.73514 2.05095 34947 ft 451 kts 40°
2026-04-30 22:17 10.80800 2.11200 34945 ft 451 kts 40°
2026-04-30 22:18 10.88052 2.17280 34946 ft 452 kts 40°
2026-04-30 22:19 10.95356 2.23375 34942 ft 453 kts 39°
2026-04-30 22:20 11.03298 2.28638 34940 ft 455 kts 29°
2026-04-30 22:20 11.11905 2.32738 34942 ft 455 kts 25°
2026-04-30 22:21 11.17723 2.35380 34947 ft 455 kts 25°
2026-04-30 22:21 11.23512 2.38015 34947 ft 455 kts 25°
2026-04-30 22:22 11.29279 2.40646 34945 ft 455 kts 25°
2026-04-30 22:22 11.35075 2.43291 34945 ft 456 kts 25°
2026-04-30 22:23 11.40886 2.45945 34941 ft 456 kts 25°
2026-04-30 22:23 11.46678 2.48592 34939 ft 456 kts 25°
2026-04-30 22:24 11.52454 2.51234 34934 ft 455 kts 25°
2026-04-30 22:24 11.58261 2.53891 34932 ft 455 kts 25°
2026-04-30 22:25 11.64043 2.56537 34930 ft 455 kts 25°
2026-04-30 22:25 11.69814 2.59180 34925 ft 455 kts 25°
2026-04-30 22:26 11.78508 2.63162 34920 ft 455 kts 25°
2026-04-30 22:27 11.84262 2.65801 34917 ft 455 kts 25°
2026-04-30 22:27 11.92952 2.69787 34910 ft 455 kts 25°
2026-04-30 22:28 12.01609 2.73762 34907 ft 454 kts 25°
2026-04-30 22:29 12.13174 2.79074 34906 ft 454 kts 25°
2026-04-30 22:31 12.33382 2.88372 34899 ft 455 kts 25°
2026-04-30 22:32 12.47827 2.95025 34898 ft 455 kts 25°
2026-04-30 22:33 12.62289 3.01698 34902 ft 455 kts 25°
2026-04-30 22:35 12.76750 3.08376 34905 ft 455 kts 25°
2026-04-30 22:36 12.91218 3.15067 34891 ft 456 kts 25°
2026-04-30 22:37 13.02774 3.20417 34890 ft 456 kts 25°
2026-04-30 22:38 13.14365 3.25791 34889 ft 457 kts 25°
2026-04-30 22:39 13.23089 3.29839 34892 ft 457 kts 25°
2026-04-30 22:40 13.40474 3.37917 34905 ft 458 kts 25°
2026-04-30 22:41 13.55016 3.44690 34906 ft 458 kts 24°
2026-04-30 22:43 13.72567 3.52558 34905 ft 457 kts 24°
2026-04-30 22:44 13.84246 3.57809 34906 ft 458 kts 24°
2026-04-30 22:45 14.01804 3.65719 34913 ft 458 kts 24°
2026-04-30 22:47 14.19360 3.73643 34917 ft 457 kts 24°
2026-04-30 22:48 14.31058 3.78928 34915 ft 459 kts 24°
2026-04-30 22:49 14.48670 3.86905 34911 ft 463 kts 23°
2026-04-30 22:51 14.66371 3.94928 34921 ft 463 kts 23°
2026-04-30 22:52 14.75263 3.98963 34924 ft 463 kts 23°
2026-04-30 22:53 14.87085 4.04338 34927 ft 463 kts 22°
2026-04-30 22:53 14.95908 4.08352 34931 ft 463 kts 22°
2026-04-30 22:55 15.10656 4.15069 34936 ft 463 kts 22°
2026-04-30 22:56 15.22502 4.20471 34939 ft 464 kts 22°
2026-04-30 22:57 15.37298 4.27231 34944 ft 464 kts 22°
2026-04-30 22:58 15.49140 4.32649 34947 ft 465 kts 22°
2026-04-30 22:59 15.66962 4.40813 34964 ft 466 kts 22°